DELTA 1 R/B, 1729

Orbit data source: Space-Track

DELTA 1 R/B, 1729 is space debris in LEO originally from a launch on Sat, 06 Nov 1965 UTC launched from the Air Force Eastern Test Range (AFETR). Debris objects in space refer to the collection of defunct objects orbiting the Earth. Examples of debris include non-operational satellites, rocket bodies, and fragments generated from explosions, collisions, or faulty payload assembly.

Loading next visibility...
Identifier
1729, 1965-089B
Orbit
LEO
Country
Flag of USUS
Related business
Manufacturer
ABL
Mission
Spacecraft
Bus & Motor
ALTAIR, Unknown motor
Mass
~60 kg wet, ~60 kg dry
Launch date (UTC)
1965-11-06 (60 years ago)
Launch vehicle
Unknown
Launch site
Air Force Eastern Test Range (AFETR)
Object type
Payload
Rocket body
Debris
Shape & HBR
Unknown
Radar Cross Section
Medium (>0.1 m² and <1 m²)

Expand to show TLE details & history
Last TLE update: 22 hours ago

TLE from 22 hours ago
0 DELTA 1 R/B
1  1729U 65089B   25306.37692733 -.00000018  00000-0  35038-3 0  9995
2  1729  59.3873 163.3833 0716736  42.5954 122.5308 11.97566995623259
Epoch: 2025-11-02T09:02Z
TLE epoch observation values (Epoch: 2025-11-02T09:02:46.521Z)
Latitude
7.08011°
Longitude
161.60067°
Altitude
2,031.311 km
Speed
6.741 km/s
True Right ascension
22h 36m 45s
True Declination
7° 02' 40"
Sunlit
Object was in daylight at epoch
Visualization orbit readout
Latitude
Unknown
Longitude
Unknown
Altitude
Unknown
Speed
Unknown
Apparent Right ascension
Unknown
Apparent Declination
Unknown
Sunlit
N/A
Visualization observer readout
Local Sidereal Time
02:44:51
Azimuth
Unknown
Elevation
Unknown
Doppler factor
Unknown
Orbital elements
Apogee altitude
2,269.522 km
Perigee altitude
1,112.81 km
Semi-major axis
8,069.303 km
Eccentricity
0.07167
Inclination
59.3873°
RAAN
163.3833°
Arg. of periapsis
42.5954°
True anomaly
129.12206°
Mean anomaly
122.5308°
Eccentric anomaly
125.85903°
Mean motion
2.99426 °/min
Orbital period
120.23 mins
BSTAR
0.00035038
Loading maneuver chart data...
Computing Atmospheric mass density...
Loading historical data...
Loading historical data...
Loading historical data...
Loading historical data...
Loading historical data...
Loading historical data...
Loading historical data...

Documentation

Showing up to 5 results
|